Weather in Barbacena

Brazil     21°12′55″S   43°44′56″W
temp.,
°C
wind,
m/s
gust,
m/s
humid.,
%
clouds,
%
prec.,
mm/h
press.,
hPa
HPBL,
m
10 april, sat
sat1000:00+13ese22950 0.0 102233
03:00+12ese22977 0.0 102027
06:00+11e11920 0.0 102111
09:00+17ene23740 0.0 1021436
12:00+21nne22600 0.0 10181204
15:00+22n12550 0.0 10151362
18:00+16ne11820 0.0 101711
21:00+14ene22910 0.0 101925
11 april, sun
sun1100:00+13ene11920 0.0 101911
03:00+12ne11900 0.0 101711
06:00+12nne11890 0.0 101810
09:00+19nw22720 0.0 1019417
12:00+22wnw33540 0.0 10171234
15:00+23wnw22520 0.0 10151336
18:00+17wnw11700 0.0 101611
21:00+15wsw11760 0.0 101811
12 april, mon
mon1200:00+13nw11810 0.0 101811
03:00+13w11810 0.0 101711
06:00+12wnw22850 0.0 101818
09:00+19wnw34670 0.0 1019337
12:00+23wsw23510 0.0 10171014
15:00+24s24490 0.0 10151521
18:00+17sse23750 0.0 101735
21:00+15sse512920 0.0 1020271
13 april, tue
tue1300:00+16sse499947 0.0 1020273
03:00+15sse399868 0.0 1019252
06:00+15se259828 0.0 1019108
09:00+19se458653 0.1 1021634
12:00+18sse479190 0.8 1020527
15:00+20sse567933 0.9 1018725
18:00+16se379897 0.0 1020296
21:00+15se499798 0.0 1021303
14 april, wed
wed1400:00+14se389978 0.0 1021272
03:00+14se369885 0.0 1019225
06:00+14se359697 0.0 1020247
09:00+17ese348461 0.0 1021533
12:00+19ese3376100 0.1 1020863
15:00+18ese338064 0.1 1019537
18:00+15ese359529 0.0 1020108
21:00+14ese35976 0.0 1021112